Date,TemperatureHighF,TemperatureAvgF,TemperatureLowF,DewpointHighF,DewpointAvgF,DewpointLowF,HumidityHigh,HumidityAvg,HumidityLow,PressureMaxIn,PressureMinIn,WindSpeedMaxMPH,WindSpeedAvgMPH,GustSpeedMaxMPH,PrecipitationSumIn
2013-7-1,87,80,72,62,58,55,63,47,35,30.01,29.92,0,0,0,0.00
2013-7-2,78,74,69,60,56,51,63,55,41,30.06,29.99,0,0,0,0.00
2013-7-3,91,79,69,60,53,48,56,42,24,30.04,29.93,0,0,0,0.00
2013-7-4,95,82,71,64,59,52,68,47,26,29.99,29.87,0,0,0,0.00
2013-7-5,95,84,72,65,60,55,69,48,29,29.98,29.84,0,0,0,0.00
2013-7-6,95,86,74,68,62,60,65,48,31,29.94,29.84,0,0,0,0.00
2013-7-7,96,86,75,71,66,61,72,53,38,29.99,29.90,0,0,0,0.00
2013-7-8,95,86,77,74,70,64,80,61,44,30.07,29.96,0,0,0,0.00
2013-7-9,98,88,77,72,67,63,79,52,32,30.11,29.96,0,0,0,0.00
2013-7-10,100,90,81,72,68,64,70,49,32,30.05,29.89,0,0,0,0.00
2013-7-11,101,88,81,72,69,64,71,55,36,29.96,29.87,0,0,0,0.00
2013-7-12,99,88,75,73,69,64,82,57,35,29.96,29.86,0,0,0,0.00
2013-7-13,99,89,79,71,68,61,71,51,35,29.98,29.86,0,0,0,0.00
2013-7-14,84,74,69,68,64,58,86,71,44,30.01,29.87,0,0,0,0.29
2013-7-15,73,70,68,70,67,64,92,89,86,30.06,29.94,0,0,0,1.02
2013-7-16,87,76,71,74,70,68,92,84,61,30.18,30.06,0,0,0,0.43
2013-7-17,86,76,72,75,70,68,92,83,64,30.21,30.12,0,0,0,0.42
2013-7-18,90,81,72,74,71,69,90,74,54,30.17,29.99,0,0,0,0.07
2013-7-19,93,83,76,73,70,68,82,67,50,30.04,29.90,0,0,0,0.86
2013-7-20,94,81,74,74,71,68,84,72,48,29.97,29.84,0,0,0,0.14
2013-7-21,94,84,75,76,72,69,86,69,46,29.92,29.83,0,0,0,0.00
2013-7-22,96,86,77,76,72,70,84,65,46,29.96,29.85,0,0,0,0.00
2013-7-23,97,88,79,77,72,66,80,61,42,29.96,29.81,0,0,0,0.00
2013-7-24,95,86,79,74,70,66,75,61,44,30.03,29.85,0,0,0,0.00
2013-7-25,94,85,76,76,72,69,79,66,49,30.04,29.96,0,0,0,0.00
2013-7-26,95,84,79,75,72,70,78,68,49,30.00,29.84,0,0,0,0.04
2013-7-27,89,81,74,71,67,64,79,65,46,30.01,29.89,0,0,0,0.00
2013-7-28,91,82,72,72,68,65,80,64,48,29.98,29.86,0,0,0,0.00
2013-7-29,95,85,77,75,71,64,85,64,40,29.98,29.90,0,0,0,0.00
2013-7-30,98,87,78,73,70,63,77,57,42,30.06,29.94,0,0,0,0.00
2013-7-31,101,90,80,72,68,64,69,51,39,30.04,29.90,0,0,0,0.00